User: anonymous   Login
Location: Sungai Anya
(2.6167°N, 114.0500°E)
Time: 15:10:09
(UTC+00:00)
Language:

Cosmos 2227 Rocket - Orbit

View from above orbital plane
View from above orbital plane
View from above satellite
View from above satellite

Ground track
Ground track

The orbit data is extracted from the following two-line orbital elements,

1 22285U 92093B   22024.10597791  .00000283  00000-0  17034-3 0  9992
2 22285  71.0219 283.8461 0002100  77.1518 282.9839 14.15073427500465
Epoch (UTC): 24 January 2022 02:32:36
Eccentricity: 0.0002100
inclination: 71.0219°
perigee height: 840 km
apogee height: 843 km
right ascension of ascending node: 283.8461°
argument of perigee: 77.1518°
revolutions per day: 14.15073427
mean anomaly at epoch: 282.9839°
orbit number at epoch: 50046

The dashed part of the orbit path shows where the satellite is in the earth's shadow,  

DLR